Regional Weather Roundup
Issued by NWS

Home | Current Version | Previous Version | Text Only | Print | Product List | Glossary On
Versions: 1 2 3 4 5 6 7 8 9 10 11 12 13 14 15 16 17 18 19 20 21 22 23 24 25 26 27 28 29 30 31 32 33 34 35 36 37 38 39 40 41 42 43 44 45 46 47 48 49 50
000
ASUS43 KMKX 140821
RWRWI

WISCONSIN REGIONAL WEATHER ROUNDUP
NATIONAL WEATHER SERVICE MILWAUKEE/SULLIVAN WI
300 AM CDT MON JUL 14 2014

NOTE: "FAIR" INDICATES FEW OR NO CLOUDS BELOW 12,000 FEET WITH NO
SIGNIFICANT WEATHER AND/OR OBSTRUCTIONS TO VISIBILITY.

WIZ001-002-006>008-014>016-023>028-140900-
NORTHWEST WISCONSIN

CITY           SKY/WX    TMP DP  RH WIND       PRES   REMARKS
SUPERIOR ARPT  MOCLDY    51  49  93 S6        29.83F
ASHLAND        PTCLDY    52  48  86 SW6       29.84F
HAYWARD        CLOUDY    54  53  97 CALM      29.86S
SIREN          CLOUDY    56  51  82 W3        29.87F
RICE LAKE      PTCLDY    57  50  78 NW3       29.88S
LADYSMITH      MOCLDY    59  52  78 N6        29.87S
EAU CLAIRE     CLOUDY    58  55  90 W6        29.85S
MENOMONIE      CLOUDY    59  53  81 SW5       29.86F
NEW RICHMOND   MOCLDY    58  50  76 CALM      29.88S
OSCEOLA        PTCLDY    58  50  74 NW3       29.91S
$$

WIZ003>005-009-010-017-018-140900-
NORTH CENTRAL WISCONSIN

CITY           SKY/WX    TMP DP  RH WIND       PRES   REMARKS
WOODRUFF       MOCLDY    55  46  73 CALM      29.84S
RHINELANDER    LGT RAIN  55  51  86 CALM      29.84F
EAGLE RIVER    MOCLDY    52  50  92 CALM      29.83F
LAND O LAKES   PTCLDY    49  48  97 CALM      29.84S
PHILLIPS       CLOUDY    55  50  83 N5        29.84S
TOMAHAWK       CLOUDY    52  50  91 CALM      29.86S
MEDFORD        MOCLDY    55  51  87 CALM      29.85S
MERRILL        MOCLDY    50  50  99 CALM      29.84F
$$

WIZ029-030-035-036-043>047-140900-
CENTRAL WISCONSIN

CITY           SKY/WX    TMP DP  RH WIND       PRES   REMARKS
WAUSAU         CLEAR     56  52  86 SE3       29.83F
MOSINEE        CLEAR     52  52 100 CALM      29.86F
MARSHFIELD     CLEAR     53  51  93 SW5       29.85F
STEVENS POINT  CLEAR     51  48  90 CALM      29.86S
WAUPACA        CLEAR     55  51  85 W3        29.85F
WAUTOMA        CLEAR     51  50  97 CALM      29.87F
WISC RAPIDS    CLEAR     52  50  93 CALM      29.87S
CAMP DOUGLAS   CLEAR     52  52 100 SE3       29.87S
$$

WIZ011>013-019>022-031-037>040-048>050-140900-
NORTHEAST WISCONSIN

CITY           SKY/WX    TMP DP  RH WIND       PRES   REMARKS
ANTIGO         PTCLDY    48  48  98 CALM      29.85F
STURGEON BAY   PTCLDY    61  48  63 SW6       29.83S
GREEN BAY      CLEAR     57  53  86 CALM      29.84F
MANITOWOC      CLEAR     59  50  72 W6        29.84F
APPLETON       CLEAR     59  50  72 W7        29.85F
CLINTONVILLE   CLEAR     54  48  82 CALM      29.84S
OSHKOSH        CLEAR     62  50  64 SW3       29.85F
$$

WIZ032>034-041-042-053>061-140900-
SOUTHWEST WISCONSIN

CITY           SKY/WX    TMP DP  RH WIND       PRES   REMARKS
LA CROSSE      CLEAR     60  56  86 S6        29.87S
SPARTA         CLEAR     50  49  96 CALM      29.88S FOG
VIROQUA        FAIR      57  56  97 SW5       29.90S
BOSCOBEL       MOCLDY    58  56  93 S3        29.90S FOG
PRAIRIE DU CHI MOCLDY    61  59  91 CALM      29.89F
PLATTEVILLE    CLOUDY    62  58  87 CALM      29.91F
$$

WIZ056-057-062-063-064-067-068-140900-
SOUTH CENTRAL WISCONSIN

CITY           SKY/WX    TMP DP  RH WIND       PRES   REMARKS
BARABOO/DELLS  CLEAR     54  52  91 CALM      29.88S
LONE ROCK      CLEAR     59  54  83 CALM      29.89F
WATERTOWN      CLEAR     55  53  95 CALM      29.88S
MADISON        PTCLDY    59  56  89 CALM      29.89S
MIDDLETON      PTSUNNY   55  55 100 CALM      29.89S
MONROE         CLOUDY    64  54  68 SW3       29.90S
JANESVILLE     PTCLDY    61  55  82 CALM      29.89S
$$

WIZ051-052-058>065-066-070>072-140900-
SOUTHEAST WISCONSIN

CITY           SKY/WX    TMP DP  RH WIND       PRES   REMARKS
MILWAUKEE      CLEAR     62  51  67 CALM      29.88S
WAUKESHA       CLEAR     55  52  88 CALM      29.89F
MILWAUKEE/TIMM CLEAR     59  50  72 CALM      29.88S
RACINE         CLEAR     61  56  83 W3        29.90S
BURLINGTON     CLEAR     55  55  99 CALM      29.89S FOG
KENOSHA        CLEAR     59  58  96 SW3       29.89F
FOND DU LAC    CLEAR     55  51  86 S5        29.87F
SHEBOYGAN      CLEAR     55  51  86 S3        29.86F
WEST BEND      CLEAR     54  52  94 CALM      29.87F
JUNEAU         CLEAR     57  39  50 CALM      29.89S
$$

LSZ147-162-140900-
LAKE SUPERIOR

STATION/POSITION TIME  TEMP    WIND        PRES    WAVE
                       AIR SEA DIR/SP/G            HT/PER
                 (UTC) (F)     (DEG/KT/KT) (MB)    (FT/S)
W MID LAKE BUOY  0750   44 38  250/ 10/ 10 1009.1F   1
PORT WING        0740   54     210/  6/  8 1010.5F
SAXON HARBOR     0740           CALM  /  4 1010.2F
$$

LMZ867-665-643>646-140900-
LAKE MICHIGAN

STATION/POSITION TIME  TEMP    WIND        PRES    WAVE
                       AIR SEA DIR/SP/G            HT/PER
                 (UTC) (F)     (DEG/KT/KT) (MB)    (FT/S)
N MID LAKE BUOY  0750   61 60  220/ 12/ 14 1008.7F   1/ 3
NORTHPORT PIER   0700   63     230/  3/  5 1009.8F
ALGOMA LAKESHORE 0705             CALM       N/A
KEWAUNEE LAKESHO 0800   64     250/  5/  8 1010.8F
SHEBOYGAN LAKESH 0800   64     250/  7/  8 1010.9F
PORT WASHINGTON  0740   62     280/  6/  7 1011.9F
MILWAUKEE LAKESH 0800   66     220/  3/  4   N/A
S MID LAKE BUOY  0750   65 64  300/  2/  2 1011.7S   0
KENOSHA   LAKESH 0800   67     260/  7/  7   N/A
$$

TC  - TEMPERATURE IN CELSIUS
VSB - VISIBILITY IN STATUTE MILES
WCI - WIND CHILL INDEX
HX  - HEAT INDEX




USA.gov is the U.S. government's official web portal to all federal, state and local government web resources and services.